FW9456 Weather Reports


time (UTC)temp
C
wind
direction
speed
KPH
gust
KPH
rain 1hr
cm
rain 24hr
cm
rain mn
cm
humidity
%
barometer
mb
20260507040035 12 0 0.0 9.7 0.00 0.00 0.00 86 1020.3
20260507034539 12 0 1.6 12.9 0.00 0.00 0.00 86 1020.2
20260507033035 12 0 0.0 9.7 0.00 0.00 0.00 85 1020.0
20260507031535 13 0 0.0 8.0 0.00 0.00 0.00 85 1020.0
20260507030036 13 0 1.6 12.9 0.00 0.00 0.00 84 1019.9
20260507024537 13 266 3.2 14.5 0.00 0.00 0.00 83 1019.8
20260507023037 13 0 1.6 14.5 0.00 0.00 0.00 82 1019.7
20260507021537 14 241 0.0 6.4 0.00 0.00 0.00 81 1019.7
20260507020042 14 284 1.6 12.9 0.00 0.00 0.00 80 1019.7
20260507014538 15 300 0.0 6.4 0.00 0.00 0.00 79 1019.8
20260507013047 15 0 1.6 14.5 0.00 0.00 0.00 78 1019.8
20260507011537 16 234 3.2 12.9 0.00 0.00 0.00 76 1019.7
20260507010046 16 0 1.6 19.3 0.00 0.00 0.00 76 1019.6
20260507004536 16 309 3.2 14.5 0.00 0.00 0.00 76 1019.5
20260507003036 16 277 1.6 19.3 0.00 0.00 0.00 77 1019.7
20260507001537 17 352 4.8 16.1 0.00 0.00 0.00 74 1019.6
20260507000036 17 347 1.6 20.9 0.00 0.00 0.00 74 1019.5
20260506234537 17 300 4.8 19.3 0.00 0.00 0.00 74 1019.5
20260506233054 17 207 3.2 22.5 0.00 0.00 0.00 77 1019.5
20260506231539 17 236 3.2 20.9 0.00 0.00 0.00 76 1019.4
20260506230036 17 294 6.4 17.7 0.00 0.00 0.00 74 1019.6
20260506224535 17 328 3.2 16.1 0.00 0.00 0.00 74 1019.7
20260506223036 17 0 3.2 16.1 0.00 0.00 0.00 75 1019.7
20260506221536 17 223 3.2 16.1 0.00 0.00 0.00 75 1020.0
20260506220039 17 304 8.0 17.7 0.00 0.00 0.00 75 1020.2
20260506214535 18 234 3.2 17.7 0.00 0.00 0.00 75 1020.2
20260506213036 17 284 6.4 16.1 0.00 0.00 0.00 73 1020.3
20260506211535 18 15 1.6 17.7 0.00 0.00 0.00 74 1020.4
20260506210039 18 309 3.2 20.9 0.00 0.00 0.00 74 1020.4
20260506204539 18 0 4.8 16.1 0.00 0.00 0.00 74 1020.3
20260506203036 18 0 4.8 16.1 0.00 0.00 0.00 73 1020.4
20260506201537 17 360 4.8 20.9 0.00 0.00 0.00 73 1020.3
20260506200041 18 265 6.4 20.9 0.00 0.00 0.00 72 1020.4
20260506194530 17 250 4.8 20.9 0.00 0.00 0.00 74 1020.4
20260506193036 17 319 4.8 19.3 0.00 0.00 0.00 73 1020.4
20260506191535 17 315 4.8 20.9 0.00 0.00 0.00 73 1020.6
20260506190036 17 321 3.2 14.5 0.00 0.00 0.00 74 1020.6
20260506184535 17 300 3.2 19.3 0.00 0.00 0.00 76 1020.6
20260506183037 17 271 3.2 20.9 0.00 0.00 0.00 76 1020.5
20260506181536 16 275 8.0 22.5 0.00 0.00 0.00 77 1020.6
20260506180041 16 311 6.4 22.5 0.00 0.00 0.00 76 1020.4
20260506174536 17 286 6.4 24.1 0.00 0.00 0.00 75 1020.3
20260506173042 17 309 3.2 16.1 0.00 0.00 0.00 76 1020.3
20260506171544 17 0 1.6 22.5 0.00 0.00 0.00 77 1020.2
20260506170037 17 98 1.6 14.5 0.00 0.00 0.00 76 1020.3
20260506164547 18 296 0.0 8.0 0.00 0.00 0.00 78 1020.3
20260506163035 17 360 1.6 6.4 0.00 0.00 0.00 81 1020.3
20260506161535 16 0 1.6 6.4 0.00 0.00 0.00 86 1020.4
20260506160037 15 83 0.0 8.0 0.00 0.00 0.00 89 1020.3
20260506154532 13 0 0.0 0.0 0.00 0.00 0.00 90 1020.3
20260506153036 13 0 0.0 0.0 0.00 0.00 0.00 91 1020.4
20260506151535 13 0 0.0 0.0 0.00 0.00 0.00 91 1020.4
20260506150036 12 0 0.0 0.0 0.00 0.00 0.00 91 1020.5
20260506144539 13 0 0.0 0.0 0.00 0.00 0.00 92 1020.6
20260506143037 12 0 0.0 0.0 0.00 0.00 0.00 92 1020.5
20260506141549 11 0 0.0 0.0 0.00 0.00 0.00 92 1020.4
20260506140035 11 0 0.0 0.0 0.00 0.00 0.00 92 1020.3
20260506134535 11 0 0.0 0.0 0.00 0.00 0.00 91 1020.1
20260506133036 10 0 0.0 0.0 0.00 0.00 0.00 91 1020.0
20260506131539 10 0 0.0 0.0 0.00 0.00 0.00 91 1019.9
20260506130035 10 0 0.0 0.0 0.00 0.00 0.00 91 1019.7
20260506124539 10 0 0.0 0.0 0.00 0.00 0.00 90 1019.7
20260506123056 10 0 0.0 0.0 0.00 0.00 0.00 91 1019.6
20260506121534 10 0 0.0 0.0 0.00 0.00 0.00 90 1019.6
20260506120104 10 0 0.0 0.0 0.00 0.00 0.00 90 1019.5
20260506114536 10 0 0.0 0.0 0.00 0.00 0.00 90 1019.5
20260506113035 11 0 0.0 0.0 0.00 0.00 0.00 90 1019.5
20260506111537 11 0 0.0 0.0 0.00 0.00 0.00 90 1019.5
20260506110038 11 0 0.0 0.0 0.00 0.00 0.00 90 1019.4
20260506104538 11 0 0.0 0.0 0.00 0.00 0.00 90 1019.5
20260506103037 11 0 0.0 0.0 0.00 0.00 0.00 89 1019.4
20260506101536 11 0 0.0 0.0 0.00 0.00 0.00 89 1019.5
20260506100035 11 0 0.0 0.0 0.00 0.00 0.00 89 1019.5
20260506094545 11 0 0.0 0.0 0.00 0.00 0.00 89 1019.7
20260506093044 11 0 0.0 0.0 0.00 0.00 0.00 88 1019.6
20260506091536 11 0 0.0 0.0 0.00 0.00 0.00 88 1019.6
20260506090035 11 0 0.0 0.0 0.00 0.00 0.00 88 1019.6
20260506084536 11 0 0.0 0.0 0.00 0.00 0.00 88 1019.5
20260506083036 11 0 0.0 0.0 0.00 0.00 0.00 88 1019.4
20260506081537 12 0 0.0 0.0 0.00 0.00 0.00 88 1019.5
20260506073036 12 0 0.0 0.0 0.00 0.00 0.00 87 1019.3
20260506071544 12 0 0.0 0.0 0.00 0.00 0.00 86 1019.3
20260506061537 13 0 0.0 0.0 0.00 0.00 0.00 85 1019.0
20260506044550 13 0 0.0 0.0 0.00 0.00 0.00 84 1018.5
20260506043035 13 0 0.0 0.0 0.00 0.00 0.00 84 1018.4
20260506041547 13 0 0.0 0.0 0.00 0.00 0.00 83 1018.3